Find Starlink 5605

NORAD ID: 55411 Int'l Des: 2023-014 Owner: SPXS Country: US Constellation: starlink operational
LEOCIRCULAR

实时位置

正在加载3D地球...

关于 Starlink 5605

正在加载描述...

即将过境

Passes for default location (London). Set your location on the main map for personalized predictions.

高度历史

Loading altitude history...

两行轨道根数

1 55411U 23014W 26120.84875693 .00000404 00000-0 41676-4 0 9993
2 55411 69.9982 293.1329 0002333 272.7830 87.3062 14.98331736179862
Epoch: Apr 30, 2026 • Age: 16 hours

当前状态

高度 584.8 km
速度 7.57 km/s
星下点 67.84°N, 3.34°W
发射日期 Jan 31, 2023
运行时间 3.2 years
类型 internet

技术详情

分类 Payload
质量 305.00 kg
干质量 290.00 kg
总质量 305.00 kg
长度 0.20 m
直径 2.80 m
跨度 9.00 m
形状 Box + pan
制造商 SPXS
平台类型 Starlink
阶段状态 In Orbit
所有者/国家 SPXS/US

Most Searched